Tracking 28096 objects as of 29-Sep-2023
HD Live streaming from Space Station
objects crossing your sky now

COSMOS 1473

Track COSMOS 1473 now!
10-day predictions
COSMOS 1473 is classified as:


NORAD ID: 14171
Int'l Code: 1983-069A
Perigee: 1,400.6 km
Apogee: 1,470.0 km
Inclination: 74.0 °
Period: 114.4 minutes
Semi major axis: 7806 km
RCS: 0.7151 m2 (medium)
Launch date: July 6, 1983
Source: Commonwealth of Independent States (former USSR) (CIS)
Launch site: PLESETSK MISSILE AND SPACE COMPLEX (PKMTR)
Your satellite tracking list
Your tracking list is empty




NASA's NSSDC Master Catalog

Two Line Element Set (TLE):
1 14171U 83069A   23271.39392306 -.00000010  00000-0  38034-4 0  9994
2 14171  74.0226 250.6001 0044500 328.1815 200.6966 12.58739636848607
Source of the keplerian elements: AFSPC